TimeCDT,TemperatureF,Dew PointF,Humidity,Sea Level PressureIn,VisibilityMPH,Wind Direction,Wind SpeedMPH,Gust SpeedMPH,PrecipitationIn,Events,Conditions,WindDirDegrees,DateUTC
12:53 AM,71.1,48.0,44,29.68,10.0,SSW,10.4,-,N/A,,Clear,200,2013-05-16 05:53:00
1:53 AM,73.0,46.0,38,29.66,10.0,SSW,12.7,-,N/A,,Clear,200,2013-05-16 06:53:00
2:53 AM,71.1,46.9,42,29.63,10.0,South,10.4,-,N/A,,Clear,190,2013-05-16 07:53:00
3:53 AM,64.9,46.0,50,29.62,10.0,SW,5.8,-,N/A,,Clear,220,2013-05-16 08:53:00
4:53 AM,66.9,48.0,51,29.63,10.0,SW,5.8,-,N/A,,Clear,220,2013-05-16 09:53:00
5:53 AM,64.9,48.0,54,29.65,10.0,SW,9.2,-,N/A,,Clear,230,2013-05-16 10:53:00
6:53 AM,63.0,48.9,60,29.66,10.0,West,5.8,-,N/A,,Clear,270,2013-05-16 11:53:00
7:53 AM,66.9,48.0,51,29.70,10.0,NW,8.1,-,N/A,,Clear,320,2013-05-16 12:53:00
8:53 AM,73.0,46.0,38,29.72,10.0,WNW,11.5,-,N/A,,Clear,290,2013-05-16 13:53:00
9:53 AM,82.4,42.8,25,29.86,10.0,NNW,12.7,-,N/A,,Clear,330,2013-05-16 14:53:00
10:53 AM,89.1,39.9,18,29.71,10.0,North,13.8,-,N/A,,Clear,350,2013-05-16 15:53:00
11:53 AM,90.0,41.0,18,29.72,10.0,Variable,5.8,-,N/A,,Clear,0,2013-05-16 16:53:00
12:53 PM,93.9,41.0,16,29.71,10.0,NNE,8.1,-,N/A,,Clear,30,2013-05-16 17:53:00
1:53 PM,95.0,39.9,15,29.69,10.0,Calm,Calm,-,N/A,,Clear,0,2013-05-16 18:53:00
2:53 PM,96.1,37.9,13,29.66,10.0,Variable,3.5,-,N/A,,Clear,0,2013-05-16 19:53:00
3:53 PM,98.1,35.1,11,29.64,10.0,West,11.5,16.1,N/A,,Clear,260,2013-05-16 20:53:00
4:53 PM,99.0,28.0,8,29.62,10.0,West,12.7,25.3,N/A,,Clear,270,2013-05-16 21:53:00
5:53 PM,99.0,26.1,8,29.61,10.0,WNW,8.1,17.3,N/A,,Clear,300,2013-05-16 22:53:00
6:53 PM,98.1,26.1,8,29.60,10.0,SW,8.1,-,N/A,,Clear,220,2013-05-16 23:53:00
7:53 PM,96.1,24.1,8,29.60,10.0,WSW,12.7,-,N/A,,Clear,240,2013-05-17 00:53:00
8:53 PM,89.1,24.1,9,29.62,10.0,SW,6.9,-,N/A,,Clear,230,2013-05-17 01:53:00
9:53 PM,82.9,25.0,12,29.63,10.0,WSW,6.9,-,N/A,,Clear,240,2013-05-17 02:53:00
10:53 PM,80.1,25.0,13,29.64,10.0,SW,8.1,-,N/A,,Clear,230,2013-05-17 03:53:00
11:53 PM,75.0,25.0,16,29.65,10.0,WSW,8.1,-,N/A,,Clear,250,2013-05-17 04:53:00